Weather History for Omaha Offutt, NE

Change the Weather History Date:

Saturday, February 16, 2013

  Actual Average Record
Temperature  
Mean Temperature 20 °F -  
Max Temperature 32 °F 38 °F 51 °F (2011)
Min Temperature 7 °F 21 °F -2 °F (2007)
Degree Days  
Heating Degree Days 46    
Moisture  
Dew Point 17 °F    
Average Humidity 86    
Maximum Humidity 100    
Minimum Humidity 71    
Precipitation  
Precipitation 0.00 in - - ()
Snow  
Snow 0.00 in - - ()
Snow Depth 1.00 in    
Sea Level Pressure  
Sea Level Pressure 30.23 in    
Wind  
Wind Speed 5 mph (South)    
Max Wind Speed 12 mph    
Max Gust Speed -    
Visibility 10 miles    
Events Snow    
Averages and records for this station are not official NWS values.
T = Trace of Precipitation, MM = Missing Value Source: NWS Daily Summary

Daily Weather History Graph

Daily Weather History Graph

Search for Another Location

Airport:

Trip Planner

Search our weather history database for the weather conditions in past years. The results will help you decide how hot, cold, wet, or windy it might be!

Date:

Astronomy

Feb. 16, 2013 Rise Set
Actual Time 7:16 AM CST 5:59 PM CST
Civil Twilight 6:48 AM CST 6:27 PM CST
Nautical Twilight 6:16 AM CST 6:59 PM CST
Astronomical Twilight 5:44 AM CST 7:31 PM CST
Moon 10:26 AM CST (2/16) 12:04 AM CST (2/16)
Length of Visible Light 11h 39m
Length of Day
10h 43m
Waxing Crescent, 39% of the Moon is Illuminated
Feb 16
Waxing Crescent
Feb 17
First Quarter
Feb 25
Full
Mar 4
Last Quarter
Mar 11
New

Hourly Weather History & Observations

Time (CST) Temp. Windchill Dew Point Humidity Pressure Visibility Wind Dir Wind Speed Gust Speed Precip Events Conditions
12:43 AM 21.2 °F 14.9 °F 14.0 °F 74% 30.38 in 10.0 mi North 4.6 mph - N/A   Scattered Clouds
12:55 AM 19.0 °F 11.1 °F 12.7 °F 76% 30.38 in 10.0 mi North 5.8 mph - N/A   Partly Cloudy
1:55 AM 9.3 °F 1.0 °F 6.8 °F 89% 30.37 in 10.0 mi NW 4.6 mph - N/A   Clear
2:55 AM 7.9 °F 1.2 °F 6.8 °F 95% 30.35 in 10.0 mi NNW 3.5 mph - N/A   Clear
3:55 AM 10.9 °F 2.9 °F 9.7 °F 95% 30.34 in 10.0 mi SW 4.6 mph - N/A   Clear
4:55 AM 12.7 °F 5.0 °F 12.0 °F 97% 30.33 in 10.0 mi WSW 4.6 mph - 0.00 in Snow Light Snow
5:05 AM 12.2 °F - 12.2 °F 100% 30.32 in 10.0 mi Calm Calm - N/A   Clear
5:36 AM 14.0 °F 8.2 °F 12.2 °F 93% 30.32 in 10.0 mi West 3.5 mph - N/A Snow Light Snow
5:50 AM 14.0 °F 6.5 °F 12.2 °F 93% 30.31 in 10.0 mi West 4.6 mph - N/A   Clear
5:55 AM 13.6 °F 6.0 °F 12.9 °F 97% 30.31 in 10.0 mi West 4.6 mph - 0.00 in   Clear
6:55 AM 14.2 °F - 13.6 °F 98% 30.30 in 10.0 mi Calm Calm - N/A   Clear
7:22 AM 12.2 °F 6.1 °F 12.2 °F 100% 30.29 in 10.0 mi South 3.5 mph - N/A Snow Light Snow
7:36 AM 12.2 °F 4.3 °F 10.4 °F 92% 30.28 in 10.0 mi SE 4.6 mph - N/A   Clear
7:54 AM 12.2 °F 4.3 °F 10.4 °F 92% 30.28 in 10.0 mi SSE 4.6 mph - N/A Snow Light Snow
7:55 AM 11.7 °F 3.7 °F 10.8 °F 96% 30.28 in 10.0 mi SSE 4.6 mph - 0.00 in Snow Light Snow
8:04 AM 12.2 °F 6.1 °F 12.2 °F 100% 30.28 in 10.0 mi South 3.5 mph - N/A   Partly Cloudy
8:55 AM 16.2 °F 9.0 °F 15.6 °F 98% 30.27 in 10.0 mi SSE 4.6 mph - 0.00 in   Clear
9:55 AM 20.5 °F 12.8 °F 16.3 °F 84% 30.25 in 10.0 mi South 5.8 mph - N/A   Clear
10:55 AM 24.1 °F 17.0 °F 17.2 °F 75% 30.22 in 10.0 mi South 5.8 mph - N/A   Scattered Clouds
11:55 AM 28.9 °F 19.2 °F 20.7 °F 71% 30.19 in 10.0 mi South 11.5 mph - N/A   Mostly Cloudy
12:55 PM 29.1 °F 19.4 °F 21.6 °F 73% 30.16 in 10.0 mi SSW 11.5 mph - N/A   Overcast
1:55 PM 30.6 °F 23.1 °F 24.3 °F 77% 30.15 in 10.0 mi South 8.1 mph - N/A   Overcast
2:55 PM 30.9 °F 24.3 °F 24.4 °F 77% 30.12 in 10.0 mi South 6.9 mph - N/A   Overcast
3:55 PM 31.5 °F 24.2 °F 24.6 °F 76% 30.13 in 10.0 mi South 8.1 mph - N/A   Overcast
4:55 PM 32.0 °F 24.2 °F 24.6 °F 74% 30.12 in 10.0 mi South 9.2 mph - N/A   Overcast
5:55 PM 30.4 °F 22.2 °F 24.6 °F 79% 30.11 in 10.0 mi SE 9.2 mph - N/A   Overcast
6:55 PM 30.4 °F 23.6 °F 25.2 °F 81% 30.10 in 10.0 mi ESE 6.9 mph - N/A   Overcast
7:55 PM 30.6 °F 23.8 °F 24.8 °F 79% 30.10 in 10.0 mi ESE 6.9 mph - N/A   Overcast
8:55 PM 30.6 °F 23.1 °F 25.0 °F 80% 30.09 in 10.0 mi SE 8.1 mph - N/A   Overcast
9:55 PM 30.4 °F 22.9 °F 25.2 °F 81% 30.09 in 10.0 mi SE 8.1 mph - N/A   Overcast
10:55 PM 28.8 °F 21.7 °F 23.9 °F 82% 30.07 in 10.0 mi SE 6.9 mph - N/A   Mostly Cloudy
11:55 PM 26.6 °F 20.0 °F 22.8 °F 86% 30.05 in 10.0 mi SE 5.8 mph - N/A   Clear